Volver al catálogo

STARLINK-30141

ActivoComunicacionesVLEO
NORAD 57620·PAYLOAD·🇺🇸 United States

Lanzado Aug 11, 2023 desde Cape Canaveral Space Force Station

Loading…

Próximos Pases (próximas 24 horas)

TLE

ActualizadoSource: CelesTrak SupGP

Época: Sep 14, 2026, 22:25 UTC

1 57620C 23119U   26257.93451389  .00023072  00000+0  83582-3 0  2579
2 57620  43.0000  92.7214 0001474 275.9042 319.0130 15.27561355    17

Sigue STARLINK-30141 en tiempo real con AllMySat

Download on the App Store